EW5622 Weather Reports


Display with metric or nautical units.
time (UTC)temp
F
wind
direction
speed
MPH
gust
MPH
rain 1hr
in
rain 24hr
in
rain mn
in
humidity
%
barometer
mb
20260502223815 58 0 0.0 0.0 0.00 0.16 0.00 98 1012.1
20260502222703 58 0 0.0 0.0 0.00 0.16 0.00 98 1012.1
20260502221803 58 0 0.0 0.0 0.00 0.16 0.00 98 1012.1
20260502220905 58 0 0.0 0.0 0.00 0.16 0.00 98 1012.1
20260502220005 58 0 0.0 0.0 0.00 0.16 0.00 98 1012.1
20260502215403 58 0 0.0 0.0 0.00 0.16 0.16 98 1012.1
20260502214503 58 0 0.0 0.0 0.00 0.16 0.16 98 1012.1
20260502213605 58 0 0.0 0.0 0.00 0.16 0.16 98 1012.1
20260502212703 58 0 0.0 0.0 0.00 0.16 0.16 98 1012.1
20260502211803 59 0 0.0 0.0 0.00 0.16 0.16 98 1012.1
20260502210903 59 0 0.0 0.0 0.00 0.16 0.16 98 1012.1
20260502210003 59 0 0.0 0.0 0.00 0.16 0.16 98 1012.1
20260502205403 59 0 0.0 0.0 0.00 0.16 0.16 98 1012.1
20260502204503 59 0 0.0 0.0 0.00 0.16 0.16 98 1012.1
20260502203603 59 0 0.0 0.0 0.00 0.16 0.16 98 1012.1
20260502202914 59 0 0.0 0.0 0.00 0.16 0.16 98 1012.1
20260502201803 59 90 0.0 4.0 0.00 0.16 0.16 98 1012.1
20260502200905 59 90 4.0 4.0 0.00 0.16 0.16 98 1012.1
20260502200214 60 0 0.0 0.0 0.00 0.16 0.16 98 1012.1
20260502195403 60 90 0.0 3.0 0.00 0.16 0.16 98 1012.1
20260502194715 60 90 3.0 3.0 0.00 0.16 0.16 98 1012.1
20260502193812 60 0 0.0 0.0 0.00 0.16 0.16 98 1013.1
20260502192703 60 0 0.0 0.0 0.00 0.16 0.16 98 1013.1
20260502191805 60 0 0.0 0.0 0.00 0.16 0.16 98 1012.1
20260502190903 60 0 0.0 0.0 0.00 0.16 0.16 98 1013.1
20260502190218 61 0 0.0 0.0 0.00 0.16 0.16 98 1013.1
20260502185403 61 0 0.0 0.0 0.00 0.16 0.16 98 1013.1
20260502184503 61 0 0.0 0.0 0.00 0.16 0.16 98 1013.1
20260502183814 61 0 0.0 0.0 0.00 0.16 0.16 98 1012.1
20260502182705 61 0 0.0 0.0 0.04 0.16 0.16 98 1012.1
20260502181804 61 0 0.0 0.0 0.04 0.16 0.16 98 1012.1
20260502181114 61 0 0.0 0.0 0.04 0.16 0.16 98 1012.1
20260502163815 62 0 0.0 0.0 0.00 0.12 0.12 98 1013.1
20260502162703 63 0 0.0 0.0 0.00 0.12 0.12 98 1013.1
20260502161803 63 0 0.0 0.0 0.00 0.12 0.12 98 1013.1
20260502161113 63 0 0.0 0.0 0.00 0.12 0.12 98 1013.1
20260502151803 63 0 0.0 0.0 0.04 0.12 0.12 98 1013.1
20260502150903 63 0 0.0 0.0 0.04 0.12 0.12 98 1014.1
20260502123603 69 315 0.0 3.0 0.00 0.00 0.00 84 1014.1
20260502122705 69 0 0.0 0.0 0.00 0.00 0.00 84 1014.1
20260502121803 69 0 0.0 0.0 0.00 0.00 0.00 86 1015.1
20260502121114 69 0 0.0 0.0 0.00 0.00 0.00 86 1015.1
20260502120215 68 243 0.0 4.0 0.00 0.00 0.00 85 1015.1
20260502115403 68 264 0.0 2.0 0.00 0.00 0.00 84 1015.1
20260502114503 69 247 0.0 5.0 0.00 0.00 0.00 84 1015.1
20260502113813 69 279 0.0 4.0 0.00 0.00 0.00 83 1015.1
20260502112704 69 225 1.0 1.0 0.00 0.00 0.00 81 1015.1
20260502111803 69 0 0.0 0.0 0.00 0.00 0.00 80 1015.1
20260502110903 70 315 0.0 2.0 0.00 0.00 0.00 78 1015.1
20260502110005 71 315 2.0 2.0 0.00 0.00 0.00 77 1015.1
20260502105404 72 0 0.0 0.0 0.00 0.00 0.00 78 1015.1
20260502104713 71 247 0.0 3.0 0.00 0.00 0.00 80 1015.1
20260502103603 70 315 0.0 4.0 0.00 0.00 0.00 81 1015.1
20260502102705 69 0 0.0 0.0 0.00 0.00 0.00 84 1015.1
20260502101805 68 0 0.0 0.0 0.00 0.00 0.00 86 1015.1
20260502100903 68 0 0.0 0.0 0.00 0.00 0.00 88 1015.1
20260502090903 65 0 0.0 0.0 0.00 0.00 0.00 88 1015.1
20260502070903 60 0 0.0 0.0 0.00 0.00 0.00 87 1014.1
20260502070215 60 0 0.0 0.0 0.00 0.00 0.00 87 1014.1
20260502065403 59 0 0.0 0.0 0.00 0.00 0.00 87 1014.1
20260502064503 58 0 0.0 0.0 0.00 0.00 0.00 87 1014.1
20260502063603 58 0 0.0 0.0 0.00 0.00 0.00 87 1015.1
20260502062913 58 0 0.0 0.0 0.00 0.00 0.00 87 1015.1
20260502061805 57 0 0.0 0.0 0.00 0.00 0.00 86 1015.1
20260502061113 57 0 0.0 0.0 0.00 0.00 0.00 86 1015.1
20260502060003 57 0 0.0 0.0 0.00 0.00 0.00 87 1015.1
20260502055614 57 0 0.0 0.0 0.00 0.00 0.00 87 1015.1
20260502054503 57 0 0.0 0.0 0.00 0.00 0.00 87 1015.1
20260502053813 57 0 0.0 0.0 0.00 0.00 0.00 87 1015.1
20260502052703 57 0 0.0 0.0 0.00 0.00 0.00 87 1015.1
20260502052014 58 0 0.0 0.0 0.00 0.00 0.00 86 1015.1
20260502050903 58 0 0.0 0.0 0.00 0.00 0.00 85 1015.1
20260502050214 58 0 0.0 0.0 0.00 0.00 0.00 84 1015.1
20260502045614 58 0 0.0 0.0 0.00 0.00 0.00 84 1015.1
20260502044505 58 0 0.0 0.0 0.00 0.00 0.00 84 1014.1
20260502043603 58 0 0.0 0.0 0.00 0.00 0.00 84 1014.1
20260502042703 58 0 0.0 0.0 0.00 0.00 0.00 84 1014.1
20260502041803 58 0 0.0 0.0 0.00 0.00 0.00 84 1014.1
20260502040903 58 0 0.0 0.0 0.00 0.00 0.00 84 1014.1
20260502040003 58 0 0.0 0.0 0.00 0.00 0.00 84 1014.1
20260502035403 58 0 0.0 0.0 0.00 0.00 0.00 84 1015.1
20260502034503 58 0 0.0 0.0 0.00 0.00 0.00 84 1015.1
20260502033603 58 0 0.0 0.0 0.00 0.00 0.00 84 1014.1
20260502032705 58 0 0.0 0.0 0.00 0.00 0.00 84 1014.1
20260502031803 58 0 0.0 0.0 0.00 0.00 0.00 84 1015.1
20260502030903 58 0 0.0 0.0 0.00 0.00 0.00 84 1015.1
20260502030003 58 0 0.0 0.0 0.00 0.00 0.00 84 1015.1
20260502025403 58 0 0.0 0.0 0.00 0.00 0.00 84 1015.1
20260502024503 58 0 0.0 0.0 0.00 0.00 0.00 84 1015.1
20260502023814 58 0 0.0 0.0 0.00 0.00 0.00 85 1015.1
20260502022913 58 0 0.0 0.0 0.00 0.00 0.00 85 1015.1
20260502021803 58 90 0.0 1.0 0.00 0.00 0.00 85 1015.1
20260502020903 58 0 0.0 0.0 0.00 0.00 0.00 86 1015.1
20260502020003 59 81 0.0 4.0 0.00 0.00 0.00 86 1015.1
20260502015403 59 0 0.0 0.0 0.00 0.00 0.00 86 1015.1
20260502014505 59 0 0.0 0.0 0.00 0.00 0.00 86 1015.1
20260502013813 59 0 0.0 0.0 0.00 0.00 0.00 86 1015.1
20260502012913 59 0 0.0 0.0 0.00 0.00 0.00 86 1015.1
20260502011803 60 0 0.0 0.0 0.00 0.00 0.00 87 1015.1
20260502010903 60 90 0.0 2.0 0.00 0.00 0.00 87 1015.1
20260502010004 60 0 0.0 0.0 0.00 0.00 0.00 87 1015.1
20260502005403 60 0 0.0 0.0 0.00 0.00 0.00 87 1015.1
20260502004503 61 0 0.0 0.0 0.00 0.00 0.00 87 1015.1
20260502003603 61 90 0.0 2.0 0.00 0.00 0.00 87 1016.1
20260502002705 61 0 0.0 0.0 0.00 0.00 0.00 88 1016.1
20260502001803 61 0 0.0 0.0 0.00 0.00 0.00 88 1016.1
20260502000903 62 0 0.0 0.0 0.00 0.00 0.00 88 1016.1
20260502000003 62 90 0.0 2.0 0.00 0.00 0.00 88 1016.1
20260501235403 62 90 0.0 2.0 0.00 0.00 0.00 88 1016.1
20260501234503 63 0 0.0 0.0 0.00 0.00 0.00 88 1016.1
20260501233603 63 67 0.0 1.0 0.00 0.00 0.00 88 1016.1
20260501232705 63 0 0.0 0.0 0.00 0.00 0.00 88 1016.1
20260501231803 64 77 0.0 4.0 0.00 0.00 0.00 88 1016.1
20260501230903 64 84 0.0 1.0 0.00 0.00 0.00 89 1016.1
20260501230005 64 67 1.0 1.0 0.00 0.00 0.00 89 1016.1
20260501225403 64 0 0.0 0.0 0.00 0.00 0.00 89 1016.1
20260501224713 65 0 0.0 0.0 0.00 0.00 0.00 89 1016.1